69P/Taylor (2004)

Japanese version
Home page
Total 6,336 html files since Dec. 4, 1995
Updated on May 25, 2005

---------------------------------------------------------------------

* Profile

* Pictures

* Orbital Elements

Epoch 2004 Nov. 11.0 TT = JDT 2453320.5
T 2004 Nov. 30.60465 TT                                 MPC
q   1.9418273            (2000.0)            P               Q
n   0.14175311     Peri.  355.52521     -0.25211839     -0.90877341
a   3.6429033      Node   108.79922     +0.89838907     -0.34750926
e   0.4669561      Incl.   20.56407     +0.35962951     +0.23101560
P   6.95
>From 81 observations 1998-2004, mean residual 0".71.

* Finding Charts

* Magnitudes Graph

        m1 = 6.5 + 5 log d + 30 log r

---------------------------------------------------------------------

The orbital elements are published on M.P.E.C. 2004-U38.
The charts are made with StellaNavigator Ver.2.0 for Windows (AstroArts / ASCII).
The magnitudes graphs are made with Comet for Windows.

---------------------------------------------------------------------

Copyright(C) 1995-2008 Seiichi Yoshida (comet@aerith.net). All rights reserved.